Time,TemperatureF,DewpointF,PressureIn,WindDirection,WindDirectionDegrees,WindSpeedMPH,WindSpeedGustMPH,Humidity,HourlyPrecipIn,Conditions,Clouds,dailyrainin,SoftwareType,DateUTC
2013-01-10 00:14:00,45.4,35.0,30.07,WSW,250,4.0,12.0,67,0.00,,,0.00,weatherlink.com 1.10,2013-01-10 05:14:00,
2013-01-10 00:45:00,44.8,34.0,30.07,NW,323,4.0,13.0,66,0.00,,,0.00,weatherlink.com 1.10,2013-01-10 05:45:00,
2013-01-10 00:59:00,44.7,34.0,30.08,WSW,237,6.0,11.0,66,0.00,,,0.00,weatherlink.com 1.10,2013-01-10 05:59:00,
2013-01-10 01:14:00,44.5,34.0,30.08,West,274,5.0,9.0,66,0.00,,,0.00,weatherlink.com 1.10,2013-01-10 06:14:00,
2013-01-10 01:29:00,44.5,33.0,30.08,West,270,2.0,10.0,64,0.00,,,0.00,weatherlink.com 1.10,2013-01-10 06:29:00,
2013-01-10 01:44:00,44.3,31.0,30.08,WSW,257,2.0,13.0,61,0.00,,,0.00,weatherlink.com 1.10,2013-01-10 06:44:00,
2013-01-10 01:59:00,43.8,31.0,30.09,West,261,3.0,9.0,61,0.00,,,0.00,weatherlink.com 1.10,2013-01-10 06:59:00,
2013-01-10 02:14:00,43.5,30.0,30.09,WSW,249,0.0,8.0,60,0.00,,,0.00,weatherlink.com 1.10,2013-01-10 07:14:00,
2013-01-10 02:29:00,43.3,30.0,30.09,West,269,2.0,8.0,60,0.00,,,0.00,weatherlink.com 1.10,2013-01-10 07:29:00,
2013-01-10 02:44:00,43.4,30.0,30.10,WNW,292,7.0,10.0,59,0.00,,,0.00,weatherlink.com 1.10,2013-01-10 07:44:00,
2013-01-10 02:59:00,43.8,29.0,30.12,WSW,243,0.0,13.0,57,0.00,,,0.00,weatherlink.com 1.10,2013-01-10 07:59:00,
2013-01-10 03:14:00,44.3,27.0,30.12,NW,318,3.0,22.0,52,0.00,,,0.00,weatherlink.com 1.10,2013-01-10 08:14:00,
2013-01-10 03:29:00,43.8,27.0,30.13,SSW,204,7.0,15.0,52,0.00,,,0.00,weatherlink.com 1.10,2013-01-10 08:29:00,
2013-01-10 03:44:00,43.3,27.0,30.14,NNW,330,10.0,13.0,53,0.00,,,0.00,weatherlink.com 1.10,2013-01-10 08:44:00,
2013-01-10 03:59:00,43.0,27.0,30.15,NW,307,2.0,11.0,53,0.00,,,0.00,weatherlink.com 1.10,2013-01-10 08:59:00,
2013-01-10 04:14:00,42.7,27.0,30.15,WNW,300,1.0,16.0,54,0.00,,,0.00,weatherlink.com 1.10,2013-01-10 09:14:00,
2013-01-10 04:29:00,42.4,27.0,30.15,NNW,335,1.0,17.0,55,0.00,,,0.00,weatherlink.com 1.10,2013-01-10 09:29:00,
2013-01-10 04:45:00,41.9,27.0,30.16,NW,315,2.0,10.0,56,0.00,,,0.00,weatherlink.com 1.10,2013-01-10 09:45:00,
2013-01-10 05:00:00,41.8,27.0,30.18,NNW,331,2.0,11.0,57,0.00,,,0.00,weatherlink.com 1.10,2013-01-10 10:00:00,
2013-01-10 05:15:00,41.6,27.0,30.19,WSW,254,0.0,9.0,57,0.00,,,0.00,weatherlink.com 1.10,2013-01-10 10:15:00,
2013-01-10 05:30:00,41.4,27.0,30.20,WNW,290,3.0,9.0,57,0.00,,,0.00,weatherlink.com 1.10,2013-01-10 10:30:00,
2013-01-10 05:45:00,41.1,27.0,30.22,NW,307,1.0,8.0,58,0.00,,,0.00,weatherlink.com 1.10,2013-01-10 10:45:00,
2013-01-10 06:00:00,40.9,27.0,30.22,West,275,1.0,5.0,58,0.00,,,0.00,weatherlink.com 1.10,2013-01-10 11:00:00,
2013-01-10 06:15:00,40.7,27.0,30.22,SW,218,3.0,7.0,59,0.00,,,0.00,weatherlink.com 1.10,2013-01-10 11:15:00,
2013-01-10 06:30:00,40.5,27.0,30.23,NW,306,1.0,6.0,59,0.00,,,0.00,weatherlink.com 1.10,2013-01-10 11:30:00,
2013-01-10 06:45:00,40.2,27.0,30.24,West,281,2.0,8.0,59,0.00,,,0.00,weatherlink.com 1.10,2013-01-10 11:45:00,
2013-01-10 07:00:00,39.7,27.0,30.25,NNW,328,0.0,7.0,60,0.00,,,0.00,weatherlink.com 1.10,2013-01-10 12:00:00,
2013-01-10 07:15:00,39.5,27.0,30.26,West,265,0.0,6.0,61,0.00,,,0.00,weatherlink.com 1.10,2013-01-10 12:15:00,
2013-01-10 07:30:00,39.3,27.0,30.27,WSW,253,6.0,7.0,61,0.00,,,0.00,weatherlink.com 1.10,2013-01-10 12:30:00,
2013-01-10 07:45:00,39.4,27.0,30.28,West,262,1.0,6.0,61,0.00,,,0.00,weatherlink.com 1.10,2013-01-10 12:45:00,
2013-01-10 08:00:00,39.7,27.0,30.29,West,276,0.0,8.0,61,0.00,,,0.00,weatherlink.com 1.10,2013-01-10 13:00:00,
2013-01-10 08:15:00,40.0,27.0,30.31,West,270,2.0,6.0,61,0.00,,,0.00,weatherlink.com 1.10,2013-01-10 13:15:00,
2013-01-10 08:30:00,40.7,27.0,30.32,WSW,252,0.0,8.0,59,0.00,,,0.00,weatherlink.com 1.10,2013-01-10 13:30:00,
2013-01-10 08:45:00,41.3,27.0,30.32,NW,311,3.0,9.0,57,0.00,,,0.00,weatherlink.com 1.10,2013-01-10 13:45:00,
2013-01-10 09:00:00,41.7,27.0,30.33,West,274,1.0,9.0,56,0.00,,,0.00,weatherlink.com 1.10,2013-01-10 14:00:00,
2013-01-10 09:15:00,42.0,26.0,30.33,WNW,283,0.0,8.0,54,0.00,,,0.00,weatherlink.com 1.10,2013-01-10 14:15:00,
2013-01-10 09:30:00,42.3,27.0,30.33,WNW,285,1.0,6.0,54,0.00,,,0.00,weatherlink.com 1.10,2013-01-10 14:30:00,
2013-01-10 09:45:00,42.7,26.0,30.33,WSW,257,2.0,9.0,53,0.00,,,0.00,weatherlink.com 1.10,2013-01-10 14:45:00,
2013-01-10 10:00:00,43.2,27.0,30.33,WNW,286,2.0,12.0,53,0.00,,,0.00,weatherlink.com 1.10,2013-01-10 15:00:00,
2013-01-10 10:15:00,43.8,27.0,30.33,WSW,244,3.0,12.0,51,0.00,,,0.00,weatherlink.com 1.10,2013-01-10 15:15:00,
2013-01-10 10:30:00,44.3,27.0,30.34,NNW,329,0.0,9.0,50,0.00,,,0.00,weatherlink.com 1.10,2013-01-10 15:30:00,
2013-01-10 10:45:00,44.6,26.0,30.33,NNE,13,1.0,13.0,49,0.00,,,0.00,weatherlink.com 1.10,2013-01-10 15:45:00,
2013-01-10 11:00:00,45.1,26.0,30.32,SW,219,0.0,13.0,48,0.00,,,0.00,weatherlink.com 1.10,2013-01-10 16:00:00,
2013-01-10 11:15:00,45.9,26.0,30.32,NNW,342,5.0,11.0,46,0.00,,,0.00,weatherlink.com 1.10,2013-01-10 16:15:00,
2013-01-10 11:30:00,46.1,26.0,30.31,SW,215,3.0,10.0,46,0.00,,,0.00,weatherlink.com 1.10,2013-01-10 16:30:00,
2013-01-10 11:45:00,46.3,26.0,30.31,WSW,252,1.0,9.0,46,0.00,,,0.00,weatherlink.com 1.10,2013-01-10 16:45:00,
2013-01-10 12:00:00,46.7,26.0,30.31,WNW,284,1.0,9.0,45,0.00,,,0.00,weatherlink.com 1.10,2013-01-10 17:00:00,
2013-01-10 12:15:00,46.5,25.0,30.31,NNW,328,3.0,9.0,44,0.00,,,0.00,weatherlink.com 1.10,2013-01-10 17:15:00,
2013-01-10 12:33:00,47.3,26.0,30.31,West,274,3.0,7.0,43,0.00,,,0.00,weatherlink.com 1.10,2013-01-10 17:33:00,
2013-01-10 12:46:00,46.4,25.0,30.31,WSW,245,1.0,10.0,44,0.00,,,0.00,weatherlink.com 1.10,2013-01-10 17:46:00,
2013-01-10 13:01:00,47.4,26.0,30.32,West,276,2.0,12.0,44,0.00,,,0.00,weatherlink.com 1.10,2013-01-10 18:01:00,
2013-01-10 13:16:00,48.1,27.0,30.32,WNW,289,2.0,7.0,44,0.00,,,0.00,weatherlink.com 1.10,2013-01-10 18:16:00,
2013-01-10 13:31:00,47.4,25.0,30.32,NW,314,3.0,11.0,42,0.00,,,0.00,weatherlink.com 1.10,2013-01-10 18:31:00,
2013-01-10 13:46:00,47.9,26.0,30.33,West,267,1.0,10.0,43,0.00,,,0.00,weatherlink.com 1.10,2013-01-10 18:46:00,
2013-01-10 14:01:00,47.8,26.0,30.34,NW,324,9.0,11.0,42,0.00,,,0.00,weatherlink.com 1.10,2013-01-10 19:01:00,
2013-01-10 14:16:00,47.4,26.0,30.34,West,267,0.0,10.0,43,0.00,,,0.00,weatherlink.com 1.10,2013-01-10 19:16:00,
2013-01-10 14:31:00,47.7,25.0,30.35,NW,325,0.0,10.0,42,0.00,,,0.00,weatherlink.com 1.10,2013-01-10 19:31:00,
2013-01-10 14:46:00,47.6,26.0,30.35,NW,324,0.0,8.0,43,0.00,,,0.00,weatherlink.com 1.10,2013-01-10 19:46:00,
2013-01-10 15:01:00,47.4,26.0,30.35,North,350,1.0,6.0,43,0.00,,,0.00,weatherlink.com 1.10,2013-01-10 20:01:00,
2013-01-10 15:16:00,46.9,25.0,30.36,NW,323,2.0,9.0,43,0.00,,,0.00,weatherlink.com 1.10,2013-01-10 20:16:00,
2013-01-10 15:31:00,46.3,25.0,30.37,NNW,341,0.0,6.0,44,0.00,,,0.00,weatherlink.com 1.10,2013-01-10 20:31:00,
2013-01-10 15:46:00,45.9,25.0,30.36,NW,312,4.0,12.0,44,0.00,,,0.00,weatherlink.com 1.10,2013-01-10 20:46:00,
2013-01-10 16:01:00,45.5,25.0,30.37,NW,324,0.0,4.0,45,0.00,,,0.00,weatherlink.com 1.10,2013-01-10 21:01:00,
2013-01-10 16:16:00,45.1,25.0,30.38,NNE,18,0.0,5.0,45,0.00,,,0.00,weatherlink.com 1.10,2013-01-10 21:16:00,
2013-01-10 16:31:00,44.3,25.0,30.39,WNW,294,0.0,6.0,47,0.00,,,0.00,weatherlink.com 1.10,2013-01-10 21:31:00,
2013-01-10 16:46:00,43.6,25.0,30.39,NW,314,0.0,6.0,48,0.00,,,0.00,weatherlink.com 1.10,2013-01-10 21:46:00,
2013-01-10 17:01:00,43.2,25.0,30.40,WNW,298,0.0,5.0,49,0.00,,,0.00,weatherlink.com 1.10,2013-01-10 22:01:00,
2013-01-10 17:16:00,42.4,25.0,30.40,NW,316,0.0,4.0,50,0.00,,,0.00,weatherlink.com 1.10,2013-01-10 22:16:00,
2013-01-10 17:31:00,41.8,25.0,30.41,WNW,291,0.0,3.0,51,0.00,,,0.00,weatherlink.com 1.10,2013-01-10 22:31:00,
2013-01-10 17:46:00,41.1,24.0,30.41,NNW,345,0.0,2.0,52,0.00,,,0.00,weatherlink.com 1.10,2013-01-10 22:46:00,
2013-01-10 18:01:00,40.7,25.0,30.42,NNW,331,0.0,1.0,53,0.00,,,0.00,weatherlink.com 1.10,2013-01-10 23:01:00,
2013-01-10 18:16:00,40.3,25.0,30.42,WNW,301,0.0,6.0,54,0.00,,,0.00,weatherlink.com 1.10,2013-01-10 23:16:00,
2013-01-10 18:31:00,39.9,25.0,30.43,WNW,293,0.0,2.0,56,0.00,,,0.00,weatherlink.com 1.10,2013-01-10 23:31:00,
2013-01-10 19:02:00,38.9,25.0,30.44,NNW,328,1.0,2.0,57,0.00,,,0.00,weatherlink.com 1.10,2013-01-11 00:02:00,
2013-01-10 19:16:00,38.4,25.0,30.45,WNW,294,0.0,1.0,59,0.00,,,0.00,weatherlink.com 1.10,2013-01-11 00:16:00,
2013-01-10 19:31:00,38.3,25.0,30.44,WNW,292,0.0,3.0,58,0.00,,,0.00,weatherlink.com 1.10,2013-01-11 00:31:00,
2013-01-10 19:46:00,38.5,25.0,30.45,NNW,338,0.0,3.0,58,0.00,,,0.00,weatherlink.com 1.10,2013-01-11 00:46:00,
2013-01-10 20:01:00,38.2,25.0,30.46,WNW,302,0.0,3.0,59,0.00,,,0.00,weatherlink.com 1.10,2013-01-11 01:01:00,
2013-01-10 20:16:00,37.8,24.0,30.47,NNW,345,0.0,5.0,59,0.00,,,0.00,weatherlink.com 1.10,2013-01-11 01:16:00,
2013-01-10 20:31:00,37.4,24.0,30.47,WNW,288,0.0,2.0,60,0.00,,,0.00,weatherlink.com 1.10,2013-01-11 01:31:00,
2013-01-10 20:46:00,37.0,25.0,30.47,WNW,295,0.0,1.0,61,0.00,,,0.00,weatherlink.com 1.10,2013-01-11 01:46:00,
2013-01-10 21:01:00,36.7,25.0,30.48,NNW,336,0.0,2.0,62,0.00,,,0.00,weatherlink.com 1.10,2013-01-11 02:01:00,
2013-01-10 21:16:00,36.5,25.0,30.49,NNW,336,0.0,3.0,63,0.00,,,0.00,weatherlink.com 1.10,2013-01-11 02:16:00,
2013-01-10 21:31:00,36.0,24.0,30.49,NNW,335,0.0,1.0,63,0.00,,,0.00,weatherlink.com 1.10,2013-01-11 02:31:00,
2013-01-10 21:47:00,35.4,25.0,30.49,NNW,335,0.0,0.0,65,0.00,,,0.00,weatherlink.com 1.10,2013-01-11 02:47:00,
2013-01-10 22:02:00,35.1,24.0,30.50,NNW,340,4.0,6.0,65,0.00,,,0.00,weatherlink.com 1.10,2013-01-11 03:02:00,
2013-01-10 22:17:00,35.6,24.0,30.50,NNW,342,0.0,5.0,64,0.00,,,0.00,weatherlink.com 1.10,2013-01-11 03:17:00,
2013-01-10 22:32:00,35.9,24.0,30.49,NNW,335,0.0,5.0,63,0.00,,,0.00,weatherlink.com 1.10,2013-01-11 03:32:00,
2013-01-10 22:47:00,35.9,24.0,30.50,North,356,0.0,3.0,63,0.00,,,0.00,weatherlink.com 1.10,2013-01-11 03:47:00,
2013-01-10 23:02:00,35.6,24.0,30.50,NNE,14,0.0,5.0,64,0.00,,,0.00,weatherlink.com 1.10,2013-01-11 04:02:00,
2013-01-10 23:17:00,35.6,24.0,30.49,East,99,1.0,5.0,64,0.00,,,0.00,weatherlink.com 1.10,2013-01-11 04:17:00,
2013-01-10 23:32:00,35.4,24.0,30.49,North,357,3.0,6.0,64,0.00,,,0.00,weatherlink.com 1.10,2013-01-11 04:32:00,
2013-01-10 23:47:00,35.1,24.0,30.49,NNW,331,0.0,3.0,65,0.00,,,0.00,weatherlink.com 1.10,2013-01-11 04:47:00,